Wind_Speed
11 12 12 13 10 9 9 9 9 9 10 11 13 14 16 15 15 14 13 13 14 14 14 15 17 18 19 19 21 23 23 25 25 24 24 22 19 18 18 18 15 16 16
11 11 12 12 12 11 9 9 9 10 10 12 14 16 17 15 13 12 12 13 13 14 14 16 18 18 19 20 21 24 25 26 27 26 26 25 22 21 20 19 16 15 17
11 11 11 11 11 9 10 11 11 10 10 12 14 15 15 13 12 11 11 12 12 13 15 16 16 17 18 19 21 23 25 26 28 28 27 28 27 22 21 21 20 17 17
9 9 9 11 11 11 11 11 10 9 9 12 13 14 13 11 10 9 10 10 11 13 13 13 14 16 17 18 20 22 24 26 29 30 30 29 30 28 24 23 22 19 19
9 10 8 9 10 10 10 9 9 9 7 9 8 12 11 9 8 8 8 8 9 10 10 11 13 15 16 18 21 22 24 25 27 29 29 30 31 30 28 27 25 22 21
6 7 8 8 9 10 10 8 7 8 10 12 9 11 11 9 7 6 6 7 7 7 8 9 11 13 14 17 19 21 23 24 25 27 28 30 31 30 30 30 29 26 23
5 6 5 7 6 7 8 8 7 8 8 12 11 8 9 8 5 4 5 6 5 5 5 6 9 10 13 16 18 21 22 23 24 26 27 29 31 32 31 30 30 29 26
4 5 6 5 7 6 6 6 6 7 8 11 12 11 5 5 6 5 4 4 3 2 3 5 7 10 12 14 16 18 21 22 24 25 26 28 29 31 31 31 29 31 29
5 4 5 4 8 5 7 6 5 5 5 9 12 11 5 5 6 6 5 4 3 2 3 6 8 10 11 13 15 17 18 20 22 23 24 25 27 29 31 31 30 28 30
8 6 5 3 5 6 6 7 4 4 5 7 10 11 11 10 7 2 6 8 6 5 6 6 9 11 11 12 14 16 17 18 20 22 23 24 25 26 29 30 29 28 26
9 7 6 5 4 5 7 8 6 6 8 8 8 11 10 9 10 8 3 4 8 9 10 9 11 11 12 12 13 16 17 18 18 20 22 24 26 25 25 28 28 27 25
8 8 7 6 5 4 6 7 7 6 9 10 10 10 10 8 5 4 2 4 6 9 11 12 12 12 14 15 17 17 18 20 20 19 20 23 25 24 23 25 26 25 24
5 7 6 5 6 7 6 6 6 7 8 13 11 9 12 12 12 12 5 6 6 8 9 11 14 15 13 18 20 20 21 21 22 21 19 22 25 24 22 22 23 22 20
8 7 6 6 5 7 7 6 6 9 10 12 13 10 12 14 14 14 13 10 6 10 12 15 13 15 17 22 25 24 26 25 26 23 20 23 26 24 21 20 21 20 18
9 9 7 6 5 3 4 4 5 7 9 10 11 11 11 13 15 17 17 17 15 10 10 16 16 17 20 23 29 28 30 29 27 23 22 25 26 21 19 19 20 19 18
9 10 9 8 6 4 5 4 4 5 5 9 9 9 10 11 13 15 17 19 19 20 18 14 19 23 26 28 30 31 28 27 26 22 25 21 19 18 17 18 19 18 18
12 11 10 10 8 6 5 5 5 5 5 5 6 8 10 10 10 12 13 16 19 21 23 23 23 27 27 28 26 24 22 22 21 19 17 16 15 15 16 17 16 17 19
15 14 14 11 10 9 9 8 8 7 6 6 6 7 6 6 6 8 9 10 13 15 17 19 18 19 20 20 19 19 19 18 18 17 16 16 16 17 17 17 16 16 18
18 16 15 15 13 11 11 9 10 8 7 7 8 7 8 9 8 9 8 10 10 10 10 12 14 15 16 16 16 17 17 17 17 19 19 18 18 20 21 19 16 16 16
20 19 17 18 17 15 14 14 11 11 10 11 10 10 11 10 11 11 11 11 12 12 14 14 15 15 15 17 17 16 17 16 16 16 18 20 20 21 22 23 22 21 18
22 20 19 19 19 18 18 15 14 14 14 14 14 13 15 14 14 14 14 14 14 15 16 17 17 15 13 16 20 19 20 20 18 19 18 17 19 21 22 25 24 21 20
23 19 18 20 19 19 17 16 15 14 15 16 16 15 16 15 16 16 16 16 17 16 16 17 17 18 19 20 22 23 24 24 23 20 22 20 20 20 21 20 24 25 24
22 20 20 22 20 20 19 17 17 17 17 17 17 16 18 15 15 16 17 18 19 20 20 20 20 20 22 22 23 24 24 25 26 25 27 25 21 21 21 19 23 25 25
21 19 19 21 22 23 23 22 21 21 20 19 19 19 22 20 19 20 21 21 21 22 24 23 24 23 23 23 25 26 25 25 24 24 25 26 23 23 22 23 24 20 23
22 25 26 27 27 27 26 26 25 23 23 23 25 22 24 24 23 22 23 23 23 25 26 25 25 25 25 25 26 26 28 28 26 27 27 28 27 27 25 21 19 24 20
26 27 30 35 37 33 30 27 26 25 24 25 26 23 22 19 19 24 24 24 24 29 29 28 27 28 28 27 28 27 27 26 27 29 27 30 30 28 27 23 22 21 23
Wind_Direction
105 105 115 119 121 113 119 117 113 109 105 106 112 117 115 111 107 102 96 92 87 83 76 73 71 67 62 58 55 51 47 43 40 35 30 22 15 9 6 5 355 354 346
103 112 115 121 119 119 120 117 112 111 111 113 120 121 117 114 109 103 96 90 84 79 77 75 71 66 59 51 49 44 41 40 40 37 31 25 17 12 9 8 360 357 2
106 102 105 115 120 114 114 109 107 108 108 112 124 122 120 118 113 108 102 94 87 82 79 73 68 63 56 48 41 38 37 37 38 36 32 26 27 20 14 10 10 11 10
113 111 103 103 110 103 108 104 103 101 108 120 129 128 126 120 114 106 101 101 99 96 86 76 65 57 50 45 40 37 34 32 34 33 31 26 25 25 20 16 14 15 18
134 125 113 111 111 103 109 108 105 114 114 122 120 133 130 126 117 110 107 106 104 96 86 72 61 52 43 37 34 32 31 30 30 31 27 25 23 22 24 23 19 19 17
146 129 126 129 116 115 113 112 126 138 139 146 136 148 141 138 131 119 109 109 104 89 74 60 52 45 36 35 30 27 27 27 25 26 25 23 22 19 20 23 25 21 21
155 150 146 144 136 130 117 116 124 154 155 153 136 147 150 149 148 129 118 126 113 85 61 45 38 35 29 29 26 22 21 22 21 21 22 23 20 18 18 17 20 23 24
186 176 164 170 171 145 139 125 107 134 157 169 166 144 147 151 172 166 158 151 140 102 21 6 13 16 18 19 15 15 16 15 15 16 17 19 19 18 17 15 15 18 21
183 186 185 163 183 165 169 146 118 128 150 174 181 167 134 189 171 196 196 203 215 261 322 335 344 352 356 2 4 2 6 8 7 10 11 14 15 17 14 14 12 13 16
179 200 194 189 191 197 190 184 180 175 156 167 188 192 196 194 169 192 223 231 239 258 278 304 321 326 338 348 349 350 353 357 359 2 6 8 8 11 11 11 9 9 12
183 191 193 194 196 224 208 206 192 194 178 175 183 196 204 206 208 193 197 243 253 257 271 288 299 307 319 330 334 336 339 345 346 349 356 2 2 5 6 8 6 6 9
190 184 183 193 183 169 172 187 193 200 198 193 191 201 204 185 199 193 212 245 230 271 265 277 288 296 304 314 315 321 326 329 331 333 342 351 353 355 358 1 4 3 6
201 193 193 193 200 202 201 209 218 218 213 212 206 210 216 214 217 215 212 261 233 263 269 285 278 287 293 301 302 310 314 320 323 320 324 336 344 346 351 354 1 2 4
203 207 202 200 204 213 217 230 236 226 223 216 217 227 229 227 225 225 229 235 247 288 288 269 291 287 293 294 296 305 310 313 317 318 314 324 333 337 344 352 356 1 2
207 202 192 186 183 196 205 229 248 239 229 226 226 232 231 235 240 239 239 241 249 251 258 296 283 291 290 295 297 303 306 310 315 318 317 320 325 334 344 351 355 358 0
223 219 206 208 203 220 239 235 231 239 230 228 237 233 236 247 253 252 253 254 257 257 265 263 286 280 291 292 296 303 307 311 314 318 318 325 332 337 345 352 355 354 353
223 224 222 221 222 217 239 236 231 237 232 238 241 237 241 253 263 270 268 265 269 267 268 272 281 292 297 295 300 306 313 320 327 329 333 337 339 341 346 353 358 353 352
225 224 231 233 230 234 239 238 238 235 247 250 252 253 251 249 265 285 286 282 278 280 284 289 291 296 301 303 309 314 323 329 330 331 338 339 341 341 344 352 356 353 352
224 228 238 242 245 251 254 242 249 249 253 260 261 264 270 273 272 275 284 291 294 300 305 309 310 314 317 320 323 326 332 333 341 333 335 337 339 337 337 344 348 350 347
234 238 245 251 248 251 252 247 251 249 256 263 263 267 270 272 277 282 282 287 289 299 302 303 311 313 312 314 323 328 326 330 332 330 328 329 330 330 329 331 335 338 338
239 242 245 249 254 254 253 252 259 261 262 262 261 259 264 271 274 279 285 288 293 297 300 306 308 309 309 303 316 318 322 325 328 329 326 324 325 324 323 325 327 328 329
239 242 241 250 247 252 256 254 256 256 260 263 261 262 265 265 278 283 289 289 288 289 293 296 300 302 305 308 311 314 315 317 319 322 318 320 321 320 319 323 322 320 321
234 238 241 252 253 252 253 254 254 252 252 258 268 275 274 281 283 284 287 285 289 292 294 293 297 300 301 302 303 305 307 310 313 315 310 312 315 316 317 313 318 317 317
234 238 250 256 259 259 260 257 257 256 256 257 259 261 266 269 271 275 280 282 284 289 291 293 293 295 296 299 303 306 309 311 313 316 317 315 319 319 318 319 317 318 316
228 244 254 261 259 258 261 261 258 258 258 256 263 261 262 265 273 276 277 283 289 286 285 289 290 292 297 298 301 306 306 304 308 311 313 308 312 313 315 320 321 316 311
228 263 272 265 257 252 253 250 255 258 259 262 262 272 272 272 281 286 279 278 298 295 285 284 287 291 292 294 296 299 307 306 305 305 310 308 307 309 307 311 311 311 312
Height
3242 3242 3243 3244 3244 3245 3245 3245 3246 3246 3245 3246 3246 3247 3248 3249 3249 3250 3251 3252 3252 3252 3251 3251 3251 3249 3248 3246 3244 3242 3239 3237 3234 3231 3228 3225 3221 3217 3214 3210 3206 3202 3198
3244 3245 3245 3246 3246 3247 3247 3247 3247 3247 3248 3249 3249 3250 3251 3252 3253 3254 3255 3255 3256 3255 3255 3254 3254 3252 3251 3249 3247 3244 3242 3239 3236 3233 3230 3227 3223 3219 3215 3211 3207 3202 3198
3246 3246 3247 3247 3248 3248 3248 3249 3249 3250 3251 3252 3252 3254 3255 3255 3256 3256 3257 3258 3258 3259 3258 3258 3257 3256 3254 3252 3250 3248 3245 3242 3239 3236 3232 3228 3225 3221 3216 3211 3207 3202 3198
3246 3247 3248 3248 3249 3250 3250 3251 3252 3253 3253 3254 3255 3257 3258 3258 3259 3260 3260 3260 3261 3261 3261 3260 3259 3259 3257 3255 3253 3251 3248 3245 3242 3238 3234 3231 3226 3222 3218 3213 3209 3204 3200
3248 3248 3249 3250 3251 3252 3252 3253 3253 3254 3256 3257 3259 3260 3260 3261 3262 3262 3263 3263 3264 3263 3263 3263 3262 3261 3259 3258 3256 3253 3251 3248 3245 3241 3237 3233 3229 3224 3220 3216 3211 3206 3202
3249 3250 3250 3251 3252 3253 3254 3255 3255 3256 3256 3258 3261 3261 3262 3263 3264 3264 3265 3266 3266 3266 3266 3266 3265 3263 3262 3261 3258 3256 3254 3251 3247 3244 3240 3236 3232 3227 3222 3217 3213 3208 3204
3250 3251 3252 3252 3253 3254 3254 3255 3256 3257 3258 3259 3261 3263 3264 3265 3266 3266 3267 3268 3268 3268 3268 3267 3266 3265 3264 3263 3261 3258 3256 3253 3250 3246 3242 3239 3234 3230 3225 3219 3215 3211 3207
3251 3251 3252 3253 3253 3254 3255 3256 3257 3257 3258 3260 3261 3264 3268 3268 3268 3268 3269 3269 3270 3270 3269 3268 3268 3267 3266 3264 3263 3260 3258 3255 3252 3249 3245 3241 3236 3232 3228 3222 3218 3213 3209
3251 3252 3253 3253 3254 3255 3255 3256 3257 3258 3260 3261 3262 3264 3269 3271 3269 3270 3270 3270 3271 3271 3270 3269 3269 3268 3267 3266 3264 3262 3259 3256 3253 3250 3247 3243 3239 3235 3230 3226 3221 3216 3211
3249 3252 3253 3253 3254 3255 3255 3256 3257 3258 3260 3261 3262 3263 3265 3266 3270 3273 3271 3271 3271 3271 3270 3270 3270 3268 3268 3266 3264 3262 3260 3258 3254 3251 3248 3244 3240 3237 3232 3228 3224 3219 3215
3249 3251 3252 3253 3255 3254 3255 3256 3257 3258 3259 3261 3262 3264 3265 3267 3268 3270 3274 3272 3271 3271 3271 3271 3270 3269 3267 3266 3264 3262 3260 3258 3255 3252 3248 3244 3241 3238 3233 3230 3226 3221 3217
3249 3250 3251 3252 3252 3253 3254 3255 3257 3258 3258 3260 3261 3263 3264 3267 3269 3271 3273 3271 3272 3271 3270 3269 3269 3268 3267 3266 3263 3261 3259 3257 3254 3251 3248 3245 3241 3238 3234 3230 3227 3222 3219
3249 3249 3249 3250 3251 3252 3254 3254 3255 3256 3257 3259 3260 3262 3263 3264 3266 3267 3270 3272 3272 3271 3270 3269 3267 3266 3266 3264 3261 3259 3257 3255 3252 3250 3247 3244 3240 3237 3234 3230 3227 3223 3220
3248 3249 3249 3250 3251 3251 3252 3254 3255 3255 3256 3257 3258 3260 3262 3263 3264 3266 3266 3268 3272 3272 3270 3268 3266 3264 3262 3260 3258 3257 3254 3252 3250 3248 3245 3242 3239 3235 3232 3229 3226 3224 3220
3248 3248 3248 3249 3250 3251 3251 3252 3253 3253 3254 3256 3257 3258 3259 3261 3263 3264 3264 3265 3265 3268 3271 3268 3264 3263 3259 3257 3254 3253 3251 3248 3246 3244 3242 3239 3236 3234 3231 3228 3226 3223 3220
3246 3248 3248 3248 3249 3250 3251 3251 3252 3253 3253 3254 3255 3256 3257 3259 3260 3261 3262 3262 3262 3262 3262 3264 3263 3257 3255 3253 3251 3248 3246 3244 3242 3242 3238 3236 3234 3232 3230 3228 3225 3223 3220
3245 3247 3247 3248 3248 3249 3250 3251 3251 3252 3252 3253 3253 3254 3255 3256 3257 3258 3258 3259 3259 3259 3258 3258 3256 3254 3251 3248 3247 3244 3243 3241 3240 3238 3236 3233 3232 3230 3228 3226 3224 3222 3219
3242 3243 3246 3246 3247 3247 3248 3249 3250 3250 3251 3252 3252 3252 3253 3254 3254 3255 3256 3255 3255 3255 3254 3253 3252 3250 3247 3245 3243 3241 3240 3239 3238 3236 3234 3232 3230 3228 3227 3225 3223 3221 3218
3239 3240 3243 3243 3244 3246 3246 3247 3248 3248 3249 3250 3250 3251 3251 3252 3252 3252 3253 3253 3252 3251 3251 3250 3249 3247 3245 3242 3241 3240 3239 3237 3235 3234 3232 3230 3229 3226 3224 3223 3222 3220 3217
3235 3237 3239 3240 3241 3243 3245 3246 3246 3246 3247 3247 3248 3249 3249 3249 3249 3250 3250 3249 3249 3249 3248 3247 3245 3244 3244 3242 3239 3238 3237 3236 3235 3233 3230 3228 3226 3224 3222 3220 3218 3217 3216
3231 3234 3235 3237 3238 3239 3241 3243 3244 3244 3244 3245 3245 3245 3246 3246 3247 3246 3247 3246 3246 3245 3245 3244 3243 3243 3243 3239 3237 3235 3234 3232 3231 3230 3228 3227 3224 3222 3219 3216 3214 3214 3213
3227 3229 3231 3234 3235 3236 3237 3238 3239 3240 3241 3241 3241 3242 3243 3244 3244 3244 3243 3243 3243 3243 3242 3241 3240 3238 3237 3236 3234 3233 3230 3228 3227 3227 3224 3222 3221 3219 3216 3214 3211 3209 3208
3222 3225 3227 3229 3231 3232 3233 3234 3235 3236 3236 3238 3239 3240 3239 3240 3241 3241 3241 3240 3239 3238 3237 3237 3236 3235 3234 3232 3230 3229 3228 3226 3224 3222 3218 3217 3216 3214 3212 3212 3207 3204 3203
3218 3220 3223 3224 3226 3227 3229 3230 3230 3232 3232 3233 3233 3235 3234 3234 3235 3236 3236 3236 3235 3233 3232 3232 3230 3230 3229 3227 3225 3224 3222 3221 3220 3218 3215 3212 3212 3209 3208 3205 3202 3201 3198
3212 3216 3217 3218 3219 3222 3223 3225 3225 3227 3228 3228 3228 3227 3228 3229 3230 3230 3230 3231 3230 3229 3226 3226 3225 3224 3223 3222 3220 3219 3217 3214 3213 3213 3213 3208 3207 3205 3203 3202 3201 3195 3195
3210 3211 3211 3210 3210 3213 3216 3217 3220 3221 3222 3223 3223 3223 3223 3223 3223 3224 3224 3224 3223 3223 3222 3220 3219 3217 3216 3215 3213 3213 3211 3208 3207 3206 3207 3203 3201 3200 3197 3197 3195 3192 3189